N2WPO Weather Reports


time (UTC)temp
C
wind
direction
speed
KPH
gust
KPH
rain 1hr
cm
rain 24hr
cm
rain mn
cm
humidity
%
barometer
mb
20260503055120 8 135 8.0 9.7 0.00 0.00 0.00 67 1024.0
20260503054620 8 180 1.6 3.2 0.00 0.00 0.00 68 1024.0
20260503054120 8 293 3.2 4.8 0.00 0.00 0.00 68 1024.0
20260503053621 8 248 1.6 3.2 0.00 0.00 0.00 68 1024.0
20260503053120 8 135 4.8 4.8 0.00 0.00 0.00 68 1024.0
20260503052621 8 203 1.6 4.8 0.00 0.00 0.00 68 1024.0
20260503052120 8 113 8.0 8.0 0.00 0.00 0.00 65 1024.0
20260503051620 8 270 1.6 4.8 0.00 0.00 0.00 67 1024.0
20260503051120 8 270 4.8 6.4 0.00 0.00 0.00 64 1024.0
20260503050620 8 113 0.0 1.6 0.00 0.00 0.00 65 1024.0
20260503050120 8 270 1.6 3.2 0.00 0.00 0.00 66 1024.0
20260503045620 8 225 3.2 4.8 0.00 0.00 0.00 69 1024.0
20260503045120 8 203 6.4 8.0 0.00 0.00 0.00 69 1024.0
20260503044627 9 248 0.0 0.0 0.00 0.00 0.00 72 1024.0
20260503044120 9 113 0.0 1.6 0.00 0.00 0.00 72 1025.0
20260503043620 9 293 0.0 1.6 0.00 0.00 0.00 71 1024.0
20260503043121 9 158 3.2 4.8 0.00 0.00 0.00 70 1024.0
20260503042620 9 293 3.2 4.8 0.00 0.00 0.00 70 1025.0
20260503042120 8 158 11.3 14.5 0.00 0.00 0.00 74 1025.0
20260503041620 8 315 6.4 8.0 0.00 0.00 0.00 83 1025.0
20260503041120 8 270 0.0 0.0 0.00 0.00 0.00 90 1025.0
20260503040620 8 135 0.0 0.0 0.00 0.00 0.00 90 1025.0
20260503040120 8 180 0.0 0.0 0.00 0.00 0.00 91 1025.0
20260503035620 8 315 0.0 0.0 0.00 0.00 0.15 91 1025.0
20260503034651 8 158 0.0 0.0 0.00 0.00 0.15 91 1025.0
20260503034121 8 248 0.0 0.0 0.00 0.00 0.15 91 1025.0
20260503033620 8 248 0.0 0.0 0.00 0.00 0.15 90 1025.0
20260503033120 8 248 0.0 0.0 0.00 0.00 0.15 90 1025.0
20260503032620 8 248 0.0 0.0 0.00 0.00 0.15 90 1025.0
20260503032121 8 248 0.0 0.0 0.00 0.00 0.15 90 1025.0
20260503031620 8 158 0.0 0.0 0.00 0.00 0.15 90 1025.0
20260503031120 8 158 0.0 0.0 0.00 0.00 0.15 90 1025.0
20260503030620 8 270 0.0 0.0 0.00 0.00 0.15 90 1025.0
20260503030121 8 270 0.0 0.0 0.00 0.00 0.15 90 1025.0
20260503025620 8 270 0.0 0.0 0.00 0.00 0.15 90 1025.0
20260503025120 8 203 0.0 0.0 0.00 0.00 0.15 90 1025.0
20260503024621 8 270 0.0 0.0 0.00 0.00 0.15 90 1025.0
20260503024120 8 315 0.0 0.0 0.00 0.00 0.15 90 1025.0
20260503023620 8 270 0.0 0.0 0.00 0.00 0.15 90 1025.0
20260503023120 8 270 0.0 0.0 0.00 0.00 0.15 90 1025.0
20260503022620 8 248 0.0 0.0 0.00 0.00 0.15 90 1025.0
20260503022120 8 248 0.0 0.0 0.00 0.00 0.15 90 1025.0
20260503021620 8 270 0.0 0.0 0.00 0.00 0.15 90 1025.0
20260503021120 8 270 0.0 0.0 0.00 0.00 0.15 90 1025.0
20260503020620 8 270 0.0 0.0 0.00 0.00 0.15 89 1025.0
20260503020120 8 270 0.0 0.0 0.00 0.00 0.15 89 1025.0
20260503015620 8 270 0.0 0.0 0.00 0.00 0.15 89 1025.0
20260503015120 8 270 0.0 0.0 0.00 0.00 0.15 89 1025.0
20260503014620 8 270 0.0 0.0 0.00 0.00 0.15 89 1025.0
20260503014121 8 270 0.0 0.0 0.00 0.00 0.15 89 1025.0
20260503013620 9 293 0.0 0.0 0.00 0.00 0.15 89 1026.0
20260503013120 9 248 0.0 0.0 0.00 0.00 0.15 88 1025.0
20260503012621 9 315 0.0 0.0 0.00 0.00 0.15 88 1025.0
20260503012120 9 315 0.0 0.0 0.00 0.00 0.15 88 1025.0
20260503011621 9 315 0.0 0.0 0.00 0.00 0.15 88 1025.0
20260503011120 9 315 0.0 0.0 0.00 0.00 0.15 88 1025.0
20260503010621 9 293 0.0 0.0 0.00 0.00 0.15 87 1025.0
20260503010122 9 293 0.0 0.0 0.00 0.00 0.15 87 1025.0
20260503005620 9 293 0.0 0.0 0.00 0.00 0.15 87 1025.0
20260503005121 9 293 0.0 0.0 0.00 0.00 0.15 87 1025.0
20260503004620 9 293 0.0 0.0 0.00 0.00 0.15 87 1025.0
20260503004121 9 293 0.0 0.0 0.00 0.00 0.15 87 1025.0
20260503003620 9 293 0.0 0.0 0.00 0.00 0.15 86 1025.0
20260503003120 9 315 0.0 0.0 0.00 0.00 0.15 86 1025.0
20260503002621 9 270 0.0 0.0 0.00 0.00 0.15 86 1025.0
20260503002120 9 203 0.0 0.0 0.00 0.00 0.15 86 1025.0
20260503001620 9 90 0.0 0.0 0.00 0.00 0.15 86 1025.0
20260503001120 9 315 0.0 0.0 0.00 0.00 0.15 86 1025.0
20260503000620 10 293 0.0 0.0 0.00 0.00 0.15 85 1025.0
20260503000120 10 293 0.0 0.0 0.00 0.00 0.15 85 1025.0
20260502235620 10 293 0.0 0.0 0.00 0.00 0.15 85 1025.0
20260502235121 10 293 0.0 0.0 0.00 0.00 0.15 84 1025.0
20260502234620 10 45 0.0 0.0 0.00 0.00 0.15 84 1025.0
20260502234120 10 225 0.0 0.0 0.00 0.00 0.15 83 1025.0
20260502233620 10 23 0.0 0.0 0.00 0.00 0.15 83 1025.0
20260502233120 10 270 0.0 0.0 0.00 0.00 0.15 83 1025.0
20260502232620 10 0 0.0 0.0 0.00 0.00 0.15 83 1025.0
20260502232120 10 248 0.0 0.0 0.00 0.00 0.15 82 1025.0
20260502231620 10 270 0.0 0.0 0.00 0.00 0.15 81 1025.0
20260502231120 10 90 0.0 0.0 0.00 0.00 0.15 81 1025.0
20260502230623 10 293 0.0 0.0 0.00 0.00 0.15 82 1025.0
20260502230120 10 315 1.6 3.2 0.00 0.00 0.15 81 1025.0
20260502225620 10 0 0.0 0.0 0.00 0.00 0.15 80 1025.0
20260502225120 10 68 0.0 0.0 0.00 0.00 0.15 80 1025.0
20260502224621 10 113 0.0 0.0 0.00 0.00 0.15 80 1025.0
20260502224120 10 90 0.0 0.0 0.00 0.00 0.15 80 1025.0
20260502223620 11 90 0.0 0.0 0.00 0.00 0.15 79 1025.0
20260502223121 11 0 0.0 0.0 0.00 0.00 0.15 78 1025.0
20260502222620 11 113 0.0 0.0 0.00 0.00 0.15 78 1025.0
20260502222120 11 180 0.0 0.0 0.00 0.00 0.15 77 1025.0
20260502221621 11 90 0.0 0.0 0.00 0.00 0.15 77 1025.0
20260502221120 11 113 0.0 0.0 0.00 0.00 0.15 78 1025.0
20260502220620 11 90 0.0 1.6 0.00 0.00 0.15 78 1025.0
20260502220120 11 0 0.0 0.0 0.00 0.00 0.15 77 1025.0
20260502215620 11 68 0.0 0.0 0.00 0.00 0.15 77 1025.0
20260502215120 11 180 0.0 0.0 0.00 0.00 0.15 76 1025.0
20260502214621 11 68 0.0 0.0 0.00 0.00 0.15 78 1025.0
20260502214120 11 270 1.6 3.2 0.00 0.00 0.15 78 1025.0
20260502213620 11 338 3.2 4.8 0.00 0.00 0.15 76 1025.0
20260502213121 11 0 0.0 0.0 0.00 0.00 0.15 76 1025.0
20260502212620 11 68 0.0 1.6 0.00 0.00 0.15 78 1025.0
20260502212120 11 315 1.6 3.2 0.00 0.00 0.15 76 1025.0
20260502211620 11 338 3.2 4.8 0.00 0.00 0.15 76 1025.0
20260502211121 11 293 0.0 0.0 0.00 0.00 0.15 79 1025.0
20260502210620 11 203 1.6 3.2 0.00 0.00 0.15 76 1025.0
20260502210120 11 68 0.0 1.6 0.00 0.00 0.15 78 1025.0
20260502205621 11 23 1.6 3.2 0.00 0.00 0.15 80 1025.0
20260502205120 11 270 1.6 3.2 0.00 0.00 0.15 77 1025.0
20260502204620 11 270 1.6 4.8 0.00 0.00 0.15 78 1025.0
20260502204120 11 90 6.4 11.3 0.00 0.00 0.15 75 1025.0
20260502203620 11 158 0.0 0.0 0.00 0.00 0.15 77 1025.0
20260502203120 11 315 1.6 3.2 0.00 0.00 0.15 77 1025.0
20260502202620 11 68 0.0 0.0 0.00 0.00 0.15 77 1025.0
20260502202120 11 45 0.0 1.6 0.00 0.00 0.15 76 1025.0
20260502201620 11 135 1.6 3.2 0.00 0.00 0.15 76 1025.0
20260502201120 11 315 0.0 0.0 0.00 0.00 0.15 75 1025.0
20260502200621 11 0 0.0 3.2 0.00 0.00 0.15 75 1025.0
20260502200120 11 113 1.6 3.2 0.00 0.00 0.15 75 1025.0
20260502195620 11 270 3.2 4.8 0.00 0.00 0.15 75 1025.0
20260502195120 11 0 1.6 3.2 0.00 0.00 0.15 76 1025.0
20260502194620 11 315 1.6 4.8 0.00 0.00 0.15 72 1025.0
20260502194120 11 315 1.6 3.2 0.00 0.00 0.15 73 1026.0
20260502193629 11 68 0.0 1.6 0.00 0.00 0.15 73 1026.0
20260502193121 11 158 0.0 0.0 0.00 0.00 0.15 73 1026.0
20260502192620 11 90 0.0 0.0 0.00 0.00 0.15 74 1026.0
20260502192121 11 293 0.0 1.6 0.00 0.00 0.15 70 1026.0
20260502191621 11 0 1.6 3.2 0.00 0.00 0.15 72 1026.0
20260502191120 11 180 3.2 4.8 0.00 0.00 0.15 83 1026.0
20260502190620 11 158 0.0 0.0 0.00 0.00 0.15 85 1026.0
20260502190120 11 90 0.0 0.0 0.00 0.00 0.15 84 1026.0
20260502185620 11 23 0.0 0.0 0.05 0.00 0.15 87 1026.0
20260502185120 11 270 0.0 0.0 0.05 0.00 0.15 87 1026.0
20260502184621 11 248 0.0 0.0 0.05 0.00 0.15 88 1026.0
20260502184120 10 225 0.0 0.0 0.05 0.00 0.15 87 1026.0
20260502183621 10 90 0.0 0.0 0.05 0.00 0.15 89 1026.0
20260502183120 10 90 0.0 0.0 0.05 0.00 0.15 87 1026.0
20260502182620 10 203 0.0 0.0 0.05 0.00 0.15 87 1026.0
20260502182120 10 270 0.0 0.0 0.05 0.00 0.15 88 1026.0
20260502181621 10 270 0.0 0.0 0.05 0.00 0.15 86 1026.0
20260502181120 10 293 0.0 0.0 0.03 0.00 0.13 84 1026.0
20260502180620 10 68 0.0 0.0 0.03 0.00 0.13 83 1026.0
20260502180120 10 270 0.0 0.0 0.00 0.00 0.10 79 1026.0
20260502170124 13 113 1.6 4.8 0.00 0.00 0.00 63 1026.0
20260502164121 13 158 1.6 4.8 0.00 0.00 0.00 63 1026.0
20260502163620 13 135 3.2 4.8 0.00 0.00 0.00 60 1026.0
20260502163120 13 90 0.0 0.0 0.00 0.00 0.00 62 1026.0
20260502162620 13 90 0.0 0.0 0.00 0.00 0.00 64 1026.0
20260502162120 13 225 3.2 4.8 0.00 0.00 0.00 64 1026.0
20260502161620 13 135 1.6 3.2 0.00 0.00 0.00 61 1026.0
20260502161120 13 180 3.2 4.8 0.00 0.00 0.00 59 1026.0
20260502160620 14 23 4.8 6.4 0.00 0.00 0.00 57 1026.0
20260502160121 14 225 3.2 4.8 0.00 0.00 0.00 61 1026.0
20260502152120 13 293 0.0 0.0 0.00 0.00 0.00 68 1027.0
20260502151620 13 180 0.0 0.0 0.00 0.00 0.00 72 1027.0
20260502151120 13 0 0.0 0.0 0.00 0.00 0.00 68 1027.0
20260502150620 13 68 0.0 0.0 0.00 0.00 0.00 68 1027.0
20260502150120 13 248 0.0 0.0 0.00 0.00 0.00 68 1027.0
20260502140121 12 270 0.0 0.0 0.00 0.00 0.00 70 1027.0
20260502130620 11 225 1.6 3.2 0.00 0.00 0.00 78 1027.0
20260502130120 10 90 0.0 0.0 0.00 0.00 0.00 77 1027.0
20260502123620 10 248 1.6 3.2 0.00 0.00 0.00 76 1028.0
20260502123120 10 248 3.2 4.8 0.00 0.00 0.00 75 1027.0
20260502122623 10 135 4.8 4.8 0.00 0.00 0.00 74 1027.0
20260502122120 10 225 3.2 4.8 0.00 0.00 0.00 74 1027.0
20260502121620 10 135 0.0 1.6 0.00 0.00 0.00 75 1027.0
20260502121120 10 203 0.0 0.0 0.00 0.00 0.00 76 1027.0
20260502120620 10 23 0.0 1.6 0.00 0.00 0.00 77 1027.0
20260502120120 10 293 3.2 4.8 0.00 0.00 0.00 78 1027.0
20260502115620 9 315 0.0 0.0 0.00 0.00 0.00 78 1027.0
20260502115121 9 113 0.0 0.0 0.00 0.00 0.00 79 1027.0
20260502114620 9 203 0.0 1.6 0.00 0.00 0.00 79 1027.0
20260502114120 9 45 0.0 1.6 0.00 0.00 0.00 78 1027.0
20260502113620 9 270 0.0 0.0 0.00 0.00 0.00 78 1027.0
20260502113120 8 23 0.0 0.0 0.00 0.00 0.00 79 1027.0
20260502112620 8 248 0.0 0.0 0.00 0.00 0.00 82 1027.0
20260502112121 8 23 3.2 4.8 0.00 0.00 0.00 80 1027.0
20260502111620 8 270 0.0 0.0 0.00 0.00 0.00 81 1027.0
20260502111121 8 248 0.0 0.0 0.00 0.00 0.00 83 1027.0
20260502110620 8 68 0.0 0.0 0.00 0.00 0.00 81 1027.0
20260502110120 8 270 0.0 0.0 0.00 0.00 0.00 81 1027.0
20260502105621 8 0 0.0 1.6 0.00 0.00 0.00 82 1027.0
20260502105120 8 248 0.0 0.0 0.00 0.00 0.00 81 1027.0
20260502104621 8 225 0.0 0.0 0.00 0.00 0.00 80 1027.0
20260502104121 8 248 0.0 1.6 0.00 0.00 0.00 82 1027.0
20260502103620 8 270 0.0 0.0 0.00 0.00 0.00 80 1027.0
20260502103121 8 248 0.0 0.0 0.00 0.00 0.00 82 1027.0
20260502102620 8 248 4.8 6.4 0.00 0.00 0.00 80 1026.0
20260502102120 7 338 0.0 0.0 0.00 0.00 0.00 83 1027.0
20260502101621 7 315 0.0 0.0 0.00 0.00 0.00 83 1026.0
20260502101120 7 225 0.0 0.0 0.00 0.00 0.00 83 1026.0
20260502100620 7 0 0.0 0.0 0.00 0.00 0.00 83 1026.0
20260502100120 7 0 0.0 0.0 0.00 0.00 0.00 83 1027.0
20260502091121 7 248 0.0 0.0 0.00 0.00 0.00 79 1026.0
20260502090620 8 293 0.0 0.0 0.00 0.00 0.00 79 1026.0
20260502090120 8 293 0.0 0.0 0.00 0.00 0.00 79 1026.0
20260502071120 8 293 0.0 0.0 0.00 0.00 0.00 72 1026.0
20260502070620 8 293 0.0 0.0 0.00 0.00 0.00 72 1026.0
20260502070120 8 248 0.0 0.0 0.00 0.00 0.00 72 1026.0
20260502065620 8 248 0.0 0.0 0.00 0.00 0.00 71 1027.0
20260502065121 8 248 0.0 0.0 0.00 0.00 0.00 71 1026.0
20260502064620 8 225 0.0 0.0 0.00 0.00 0.00 71 1027.0
20260502064120 8 248 0.0 0.0 0.00 0.00 0.00 71 1026.0
20260502063621 8 135 0.0 0.0 0.00 0.00 0.00 72 1027.0
20260502063120 7 270 0.0 0.0 0.00 0.00 0.00 72 1027.0
20260502062620 7 23 0.0 0.0 0.00 0.00 0.00 73 1027.0
20260502062120 7 270 0.0 0.0 0.00 0.00 0.00 73 1027.0
20260502061620 7 270 0.0 0.0 0.00 0.00 0.00 73 1026.0
20260502061120 7 270 0.0 0.0 0.00 0.00 0.00 73 1026.0
20260502060621 7 248 0.0 0.0 0.00 0.00 0.00 73 1026.0
20260502060120 7 293 0.0 0.0 0.00 0.00 0.00 72 1027.0
20260502055620 7 338 0.0 0.0 0.00 0.00 0.00 73 1027.0